www.pogodaiklimat.ru

ПОГОДА в Оклахома-Сити, OK

  • Прогноз погоды в Оклахома-Сити
  • Монитор погоды в Оклахома-Сити
  • Климат в Оклахома-Сити

АРХИВ ПОГОДЫ в Оклахома-Сити

Время (UTC), дата Ветер
(напр.,м/с)
 
Видим.   Явления Облачность Т
(С)
Тd
(С)
f
(%)
Тe
(С)
Тes
(С)
Комфортность

P
(гПа)

Po
(гПа)
Тmin
(С)
Tmax
(С)
R
(мм)
SD
(см)
03:47 25.05 Ю  16 км  гроза со слабым дождем  2/2 1380 м  +18.0  +18.0  100  +18  +18      970.2         
03:56 25.05 Ю  16 км  гроза со слабым дождем  5/5 1650 м  +18.2  +18.2  100  +18  +18      970.8         
04:56 25.05 ЮВ  16 км  гроза со слабым дождем  2/2 540 м  +18.2  +18.2  100  +19  +19      970.5  +18.1  +26.6  15.0   
05:21 25.05 ЮВ  16 км  гроза  5/5 540 м  +18.0  +18.0  100  +18  +18    1015.1  968.9         
05:42 25.05 ЮВ  16 км    5/0 2850 м
[средняя] 
+18.0  +18.0  100  +18  +18    1014.1  967.9         
05:56 25.05 Ю  16 км    8/0 2850 м
[средняя] 
+17.7  +17.7  100  +18  +18    1014.1  967.9         
06:56 25.05 Ю  7
{11} 
16 км    ясно  +17.6  +17.6  100  +17  +17    1012.7  966.6         
07:56 25.05 Ю  16 км    2/0 6000 м
[средняя] 
+18.0  +17.5  97  +17  +17    1013.1  967.0      0.3   
08:56 25.05 Ю  16 км    ясно  +17.7  +17.2  97  +17  +17    1013.4  967.3         
09:56 25.05 Ю  16 км    ясно  +18.7  +17.0  90  +19  +19    1014.1  967.9         
10:56 25.05 Ю  16 км    2/0 5400 м
[средняя] 
+18.5  +17.8  96  +19  +19    1014.8  968.6  +17.5  +18.7  0.3   
11:56 25.05 Ю  16 км    ясно  +19.9  +19.1  95  +23  +23  комфорт  1015.5  969.2         
12:26 25.05 Ю  16 км    8/8 360 м  +21.0  +20.0  94  +26  +26  душно  1015.8  969.5         
12:41 25.05 Ю  7
{11} 
16 км    8/8 360 м  +21.0  +20.0  94  +26  +26  душно  1016.2  969.9         
12:56 25.05 Ю  16 км    8/8 390 м  +21.7  +19.8  89  +27  +27  душно  1016.4  970.2         
13:26 25.05 Ю  9
{11} 
16 км    2/2 390 м  +22.0  +20.0  88  +28  +28  душно  1016.8  970.5         
13:56 25.05 Ю  16 км    2/2 900 м  +22.4  +19.5  84  +28  +29  душно  1016.7  970.2         
14:56 25.05 Ю  8
{11} 
16 км    5/2 630 м
[средняя] 
+24.5  +20.0  76  +30  +31  очень
душно 
1016.6  970.2         
15:56 25.05 Ю  16 км    5/2 780 м
[средняя] 
+26.1  +20.4  71  +32  +33  очень
душно 
1016.9  970.5         
16:56 25.05 Ю  16 км    2/2 870 м
[средняя] 
+27.3  +20.6  67  +34  +36  очень
душно 
1016.5  970.2  +18.6  +27.3     
18:56 25.05 Ю  16 км    5/5 1080 м  +27.4  +20.5  66  +34  +36  очень
душно 
1015.6  969.2         
19:56 25.05 Ю  16 км    2/2 1020 м  +28.1  +20.9  65  +35  +40  очень
душно 
1014.8  968.6         
20:56 25.05 Ю  6
{9} 
16 км    2/2 1050 м  +28.6  +21.3  65  +36  +40  очень
душно 
1013.8  967.6         
21:56 25.05 Ю  4
{8} 
16 км    ясно  +27.1  +20.9  69  +34  +40  очень
душно 
1013.1  967.0         
22:56 25.05 Ю  3
{8} 
16 км    ясно  +26.1  +19.9  69  +32  +36  очень
душно 
1012.5  966.3  +26.1  +29.0     
23:56 25.05 ЮВ  16 км    5/5 1500 м  +25.2  +20.4  75  +31  +32  очень
душно 
1013.4  967.3         
00:56 26.05 ЮВ  16 км    8/8 1380 м  +24.9  +19.7  73  +30  +30  душно  1014.5  968.2         
01:56 26.05 В  16 км    2/2 1290 м  +24.0  +19.9  78  +29  +29  душно  1015.1  968.9         
02:01 26.05 В  10 км  гроза со слабым дождем  8/8 690 м  +24.0  +20.0  78  +29  +29  душно  1015.1  968.9         
02:38 26.05 ЮВ  10 км  гроза со слабым дождем  8/8 720 м  +23.0  +21.0  89  +31  +31  очень
душно 
1015.5  969.2         
02:58 26.05 Ю  11 км  гроза со слабым дождем  10/10 930 м  +22.9  +20.6  87  +30  +30  очень
душно 
1016.1  969.9         
03:00 26.05 ЮЗ  10
{15} 
16 км  гроза  2/2 1500 м  +23.0  +21.0  89  +31  +31  очень
душно 
1017.1  970.8         
03:02 26.05 З  15
{18} 
16 км  гроза  5/5 600 м  +23.0  +20.0  83  +30  +30  очень
душно 
1018.8  972.4         
03:03 26.05 З  16
{23} 
5 км  гроза с дождем  10/10 600 м  +23.0  +20.0  83  +30  +30  очень
душно 
1018.8  972.4         
03:08 26.05 З  7
{23} 
6 км  гроза с сильным дождем  10/10 360 м  +21.0  +18.0  83  +25  +25  комфорт  1018.2  971.8         
03:11 26.05 З  9
{23} 
1 км  гроза с сильным дождем  10/10 360 м  +19.0  +17.0  88  +19  +19    1018.6  972.1         
03:17 26.05 ЮЗ  8
{12} 
2 км  гроза с сильным дождем, дымка  10/10 360 м  +18.0  +17.0  94  +17  +17    1018.6  972.1         
03:21 26.05 ЮЗ  4
{12} 
2 км  гроза с сильным дождем, дымка  10/10 420 м  +18.0  +17.0  94  +18  +18    1018.0  971.5         
03:33 26.05 С  10 км  гроза с сильным дождем, дымка  10/10 570 м  +18.0  +18.0  100  +18  +18    1017.3  970.8         
03:44 26.05 С  16 км  гроза со слабым дождем  10/10 1020 м  +18.0  +18.0  100  +18  +18    1017.6  971.2         
03:56 26.05 В  11 км  гроза со слабым дождем, дымка  10/10 330 м  +18.5  +18.3  99  +20  +20    1017.5  971.2         
04:56 26.05 ЮЗ  14 км  гроза со слабым дождем  10/10 930 м  +18.0  +18.0  100  +18  +18    1019.2  972.8  +17.9  +26.0  31.0   
05:30 26.05 СВ  16 км    2/2 390 м  +18.0  +18.0  100  +18  +18    1016.5  970.2         
05:56 26.05 В  16 км    8/8 1290 м  +17.9  +17.9  100  +18  +18    1016.5  970.2         
06:56 26.05 В  16 км    10/10 1260 м  +17.9  +17.9  100  +17  +17    1016.2  969.9         
07:56 26.05 ЮВ  16 км    ясно  +17.5  +17.5  100  +17  +17    1015.5  969.2      18.0   
08:56 26.05 ЮВ  16 км    ясно  +17.2  +17.2  100  +17  +17    1015.8  969.5         
09:56 26.05 ЮВ  16 км    ясно  +17.0  +17.0  100  +17  +17    1016.2  969.9         

 

Местоположение метеостанции Tinker Air Force Base: широта 35.4167 долгота -97.3833 высота над уровнем моря 394 м.

В архиве по умолчанию представлена погода в Оклахома-Сити за последние 1-2 суток. Обновление информации о фактической погоде в базе происходит ежечасно! Архивные данные за месяц целиком и за предыдущие месяцы Вы можете получить, выбрав интересующий диапазон дат из раскрывающегося списка и нажав кнопку "Ввод!".

Внимание! Архив погоды МЕТАР в базе сайта хранится не более 60 дней. Нет смысла пытаться выбрать более раннюю дату.

Внимание! Время в таблицах - всемирное. Для получения местного времени необходимо прибавить поправку, которая в Оклахома-Сити равна -6 ч.

Ветер - указаны скорость ветра в м/с и направление, откуда дует ветер: С - северный, СВ - северо-восточный, В - восточный, ЮВ - юго-восточный, Ю - южный, ЮЗ - юго-западный, З - западный, СЗ - северо-западный.
Видимость - горизонтальная дальность видимости в метрах или километрах. При видимости от 1 до 10 км при отсутствии осадков обычно наблюдается дымка, при ухудшении видимости до 1 км и менее - туман. В сухую погоду видимость может ухудшаться дымом, пылью или мглою.
Атмосферные явления - указаны явления, наблюдавшиеся в указанный момент времени.
Облачность - указаны через наклонную черту верхняя и нижняя облачность в баллах и высота нижней границы облаков в метрах. Внимание: облачность, как и прочие метеорологические величины в США измеряются автоматическими метеостанциями. Указанные значения в баллах носят условный характер и показывают процент времени, в течение которого, в среднем, лазерный луч высотомера отражался от облаков обратно.
T - Температура воздуха - температура, измеренная на высоте 2 м над землей.
Td - Температура точки росы - температура, при понижении до которой содержащийся в воздухе водяной пар достигнет насыщения.
f - Относительная влажность воздуха - влажноcть воздуха, измеренная на высоте 2 м над землей.
Te - Эффективная температура - температура, которую ощущает одетый по сезону человек в тени. Характеристика душности погоды. При расчете учитывается влияние влажности воздуха и скорости ветра на теплоощущения человека.
Tes - Эффективная температура на солнце - температура, которую ощущает человек, с поправкой на солнечный нагрев. Характеристика знойности погоды. Зависит от высоты солнца над горизонтом, облачности и скорости ветра. Ночью, в пасмурную погоду, а также при ветре 12 м/с и более поправка равна нулю.
P - Атмосферное давление - приведенное к уровню моря атмосферное давление.
Po - Атмосферное давление - измеренное на уровне метеостанции атмосферное давление.
Tmin - Минимальная температура - минимум температуры воздуха на высоте 2 м над землей.
Tmax - Максимальная температура - максимум температуры воздуха на высоте 2 м над землей.
R - Количество осадков - Количество выпавших осадков за 3 или 6 часов, мм.
SD - Снежный покров - Высота снежного покрова, см.